Temp
73 71 70 70 70 70 70 70 70 69 68 69 69 70 70 68 66 64 64 65 68 70 72 73 73 70 71 71 72 72 72 73 75 75 75 74 74 73 70 70 71 71 71 70 70 70 71 71 72 72 72 73 73 73 73 73 73 73 73 73 73 73 72 71 71 71 72 72 72 72 72 73 73 74
71 71 70 70 71 70 70 70 70 69 69 69 69 69 70 69 68 66 66 65 66 69 69 71 72 72 73 72 72 72 72 72 74 74 73 74 74 72 70 69 69 70 70 69 68 69 69 70 70 71 71 72 72 72 72 72 72 72 72 72 72 72 72 71 71 71 71 71 71 71 72 72 72 72
71 70 70 69 70 70 70 70 70 70 69 69 69 69 69 69 70 68 67 67 68 67 70 71 73 72 72 72 72 72 72 72 74 75 74 73 72 71 72 70 69 69 69 68 68 68 68 68 68 69 70 70 71 71 71 72 72 72 72 72 72 72 72 71 70 71 71 71 71 71 71 71 71 71
71 70 70 69 70 69 70 70 70 69 70 69 69 69 68 68 68 68 67 67 67 68 70 69 70 71 72 72 73 74 73 72 73 74 74 73 73 74 75 72 70 69 68 68 68 67 67 66 67 68 69 69 70 70 71 71 71 71 71 71 71 71 70 70 70 70 71 71 70 70 70 70 71 71
71 70 70 70 70 70 70 70 70 70 70 69 69 69 69 68 67 68 68 67 67 68 67 68 71 71 70 73 72 72 72 73 73 73 74 73 73 74 73 74 70 68 67 67 67 67 66 66 67 67 68 69 69 70 70 70 69 68 69 69 68 68 69 69 69 70 70 70 70 70 70 71 71 71
71 71 70 70 70 69 70 70 70 71 70 70 70 69 69 69 68 68 68 66 66 66 66 68 69 70 70 72 71 72 74 73 72 73 72 72 72 72 73 73 74 69 68 67 67 67 66 66 66 67 67 68 68 68 69 68 66 67 68 67 67 67 67 67 67 68 68 69 69 70 70 70 70 71
70 70 70 71 70 69 70 69 70 70 70 70 70 69 69 69 69 68 69 67 65 66 67 68 69 70 70 70 73 71 71 72 72 71 71 72 72 72 72 73 74 70 68 67 67 66 66 66 65 65 65 66 66 66 65 64 65 65 64 64 64 65 65 65 65 66 67 67 68 68 69 69 69 70
70 70 70 71 71 70 69 69 69 69 70 69 70 70 69 69 69 69 68 69 69 68 68 68 69 70 70 70 71 71 71 71 72 72 71 71 71 71 72 72 71 71 68 67 66 66 66 65 64 64 63 63 63 63 62 63 63 62 63 63 63 63 63 62 62 63 63 64 64 66 67 67 68 68
71 71 71 71 70 70 69 69 68 68 68 70 70 70 69 69 69 69 68 68 69 68 67 68 68 68 69 70 70 70 70 70 70 70 69 69 69 70 71 72 72 70 68 68 67 67 66 66 66 65 65 64 63 63 63 62 61 61 61 60 60 61 62 61 61 62 62 62 62 63 64 65 66 66
72 71 71 71 70 70 70 69 69 69 69 70 70 70 70 70 69 69 69 69 68 67 68 67 68 68 69 69 70 70 69 69 69 69 69 69 70 69 70 71 72 72 72 71 71 69 68 68 66 66 65 64 63 63 62 63 63 61 60 58 58 60 59 59 59 60 60 60 60 60 61 63 64 65
72 72 72 71 71 70 70 71 70 69 69 70 70 70 70 70 70 69 68 67 67 67 67 67 68 68 68 68 68 69 69 69 68 68 68 69 70 69 70 70 71 72 71 69 68 70 70 69 69 64 61 62 63 63 62 62 62 62 61 59 58 58 58 59 58 58 58 59 60 60 60 59 61 63
73 72 73 73 72 71 71 71 71 70 69 70 70 71 70 69 69 68 68 67 67 67 66 66 67 67 67 67 68 69 69 68 67 66 66 65 67 69 70 70 69 69 70 69 70 69 68 69 67 65 65 65 65 63 64 66 66 64 61 59 61 61 59 58 58 58 58 58 58 58 59 59 60 60
72 72 72 73 73 72 72 71 72 72 72 71 70 70 70 69 69 68 68 67 67 67 66 66 66 66 66 67 67 66 66 66 64 64 65 65 68 69 68 69 69 68 68 68 68 66 69 69 69 68 67 67 68 68 66 66 66 64 61 60 61 61 60 59 58 58 57 57 57 57 58 59 58 58
72 72 72 73 72 72 73 73 73 72 72 72 73 72 70 70 69 69 68 67 67 67 66 66 67 65 65 67 67 67 68 67 65 64 63 63 66 67 67 67 67 68 67 66 66 67 68 69 68 68 68 69 68 68 67 66 67 64 62 62 62 61 61 59 58 57 57 57 57 56 56 56 57 57
71 72 72 71 72 72 72 71 71 71 70 70 70 70 70 70 70 69 67 67 67 66 67 67 66 66 66 68 68 68 68 68 67 67 67 67 66 65 63 62 66 68 68 67 66 67 69 68 66 67 67 68 68 68 68 64 63 62 61 62 62 61 61 61 61 60 58 57 57 57 56 56 57 57
71 70 70 70 70 71 71 71 71 70 70 69 69 69 68 68 69 70 70 68 66 66 67 66 67 67 66 67 68 68 68 67 67 67 66 66 65 64 63 64 63 67 67 67 65 66 69 67 66 65 66 68 68 69 66 63 61 61 61 61 61 61 61 61 62 61 60 60 60 60 60 59 59 59
70 69 68 67 68 71 72 70 71 71 71 69 67 68 69 68 68 66 67 68 70 69 68 68 66 67 67 67 67 68 68 68 66 66 65 65 64 64 64 65 65 67 67 66 63 63 66 66 65 65 66 68 68 68 65 63 62 61 62 62 61 61 61 61 61 61 61 60 59 58 58 59 59 59
70 69 67 67 68 69 70 70 70 70 70 70 69 69 69 69 70 67 65 63 65 68 69 68 67 68 68 67 68 68 69 67 66 65 65 65 64 64 64 66 65 66 66 64 63 61 64 67 65 64 66 68 66 67 65 62 61 61 61 60 60 60 60 60 60 60 59 60 59 59 57 56 56 56
71 70 70 69 69 69 69 69 69 68 69 69 68 68 68 69 69 69 69 68 69 69 69 69 68 68 68 68 68 68 68 68 68 67 66 66 65 65 64 64 64 65 65 64 62 59 64 65 63 64 66 67 66 68 64 62 61 61 60 60 60 59 59 60 60 59 59 59 59 58 57 56 56 55
70 70 70 69 68 68 69 67 67 68 69 69 67 67 67 67 66 67 67 65 67 70 69 69 70 70 69 66 68 68 68 68 67 66 66 64 63 63 62 61 64 63 66 64 63 60 62 65 63 64 67 66 65 66 66 63 61 61 60 60 60 59 58 58 59 59 59 59 59 58 57 55 54 54
70 69 70 70 68 68 69 66 62 65 69 68 67 66 65 65 66 66 67 62 61 62 60 59 60 61 60 59 57 55 56 63 64 64 63 63 64 61 60 61 61 63 65 65 63 62 60 64 63 63 65 64 64 65 65 67 63 61 60 59 59 58 57 57 58 58 59 58 58 57 57 55 55 55
69 70 71 70 69 68 68 63 61 62 68 68 67 66 64 63 64 65 67 67 64 59 58 58 58 58 59 59 58 58 57 56 60 65 62 65 64 61 61 60 61 63 63 65 65 61 61 63 62 61 63 62 63 64 65 65 65 63 61 60 59 58 58 57 57 57 58 58 58 57 56 55 55 62
68 69 70 70 69 68 66 59 60 61 67 67 67 67 65 64 64 65 66 65 64 64 66 66 66 65 64 64 65 65 59 57 61 64 65 64 63 62 62 62 60 59 61 64 64 60 61 61 63 60 59 58 63 63 64 64 65 65 65 66 66 60 58 57 56 55 56 56 56 56 55 55 55 63
67 68 69 67 62 62 60 57 56 58 62 67 67 67 66 64 63 64 64 65 66 65 66 64 64 64 63 63 64 64 64 64 66 64 64 64 64 63 63 62 61 59 61 64 64 61 62 61 61 61 60 56 56 61 62 63 64 65 65 64 64 62 62 61 60 58 56 55 55 55 55 54 55 63
66 66 67 69 61 58 58 55 54 55 58 63 67 66 66 67 64 61 64 66 65 64 64 64 63 63 62 62 62 63 63 65 66 65 64 65 65 64 63 62 61 61 63 65 62 62 59 60 59 60 59 59 59 58 61 61 63 63 64 64 63 64 65 65 64 66 61 58 55 53 53 54 54 58
66 66 67 67 61 56 55 53 53 53 56 60 66 65 57 55 57 63 66 66 64 64 63 62 62 62 62 63 63 64 64 65 66 66 65 65 64 65 66 63 61 59 60 64 59 61 59 58 61 59 59 57 59 59 57 59 61 63 64 63 63 63 64 64 65 65 65 66 67 62 63 57 56 55
67 67 67 66 58 55 52 51 52 53 54 59 62 51 51 55 58 63 64 63 62 62 62 61 61 61 61 62 63 63 64 65 63 65 65 65 64 64 64 64 63 62 63 64 64 62 60 58 60 59 58 59 56 57 56 56 59 62 62 64 64 65 65 65 64 64 65 66 66 59 56 55 55 55
67 66 67 65 54 51 48 49 51 53 56 61 49 50 54 57 60 63 63 61 61 61 61 60 60 60 60 60 61 62 63 64 63 62 62 62 62 62 61 61 62 63 62 62 62 61 60 59 60 60 59 57 55 53 54 59 60 60 59 63 64 64 65 65 64 64 64 65 65 65 65 65 66 65
68 62 57 53 50 50 48 49 51 53 54 51 51 52 55 60 63 62 62 61 60 60 60 61 61 61 61 61 63 63 61 61 61 61 62 62 62 61 60 60 61 61 62 63 63 62 60 59 59 60 58 57 55 56 56 56 58 59 60 59 59 63 64 65 65 64 64 65 64 64 64 64 64 64
59 55 52 51 51 51 53 57 60 61 59 54 54 55 58 61 61 62 61 60 60 61 61 61 61 62 60 61 62 61 61 60 62 61 61 62 63 62 60 61 62 62 62 61 62 61 60 59 58 58 57 57 57 56 57 57 56 59 60 59 61 63 63 64 64 64 63 62 63 63 64 65 64 63
58 56 56 57 55 55 56 59 58 58 57 56 56 58 58 58 58 60 61 61 61 61 60 60 61 60 61 60 60 61 61 60 60 60 60 60 61 61 59 57 59 60 62 63 62 62 61 60 60 58 56 57 59 58 58 58 56 57 59 61 60 56 62 64 64 64 64 63 63 63 63 63 64 63
60 59 55 55 58 59 59 59 59 58 58 57 57 56 56 56 57 58 59 59 60 60 61 60 60 59 59 60 61 60 60 60 60 60 60 59 59 60 58 57 58 60 59 60 62 62 61 61 59 59 58 57 55 58 59 58 57 58 58 60 61 62 63 62 63 63 64 63 61 61 61 62 62 63
60 59 60 59 58 59 59 58 57 57 56 56 56 55 55 55 56 58 59 59 59 59 59 59 59 60 60 60 60 60 60 59 59 58 57 57 57 58 56 57 58 57 57 58 59 60 60 60 60 59 58 58 58 57 55 54 58 60 59 60 60 60 62 64 63 62 62 60 59 60 59 61 62 62
60 60 59 59 59 58 58 58 57 57 57 56 55 54 54 54 56 59 59 60 60 59 59 59 59 60 60 60 60 59 60 59 59 56 57 57 57 56 57 57 57 58 56 57 58 58 58 58 58 59 59 59 60 59 57 56 56 59 60 60 59 59 61 62 63 62 61 59 57 56 57 58 61 62
60 59 59 58 59 58 59 58 58 58 58 59 58 57 56 57 57 57 59 59 59 59 59 59 60 60 60 60 59 59 60 60 60 58 57 57 56 56 57 56 57 57 58 57 58 58 57 56 56 57 57 58 58 60 61 60 57 58 60 60 60 59 59 62 62 61 61 60 59 55 56 57 58 60
59 60 59 58 58 58 58 59 60 60 61 61 61 60 59 59 59 59 60 59 59 59 59 59 59 59 59 59 59 59 59 58 58 58 58 57 56 57 56 56 57 57 57 56 57 58 57 57 56 55 53 54 54 55 58 61 60 59 57 57 59 59 60 60 60 60 60 59 58 56 53 53 55 58
59 60 59 58 58 59 60 61 61 61 61 62 61 61 61 61 60 60 61 59 59 59 60 60 60 59 59 59 58 58 58 59 59 57 57 57 56 56 56 57 57 56 56 57 57 57 56 56 56 54 53 54 53 52 55 60 58 58 59 56 57 59 58 58 58 57 59 59 57 57 55 54 55 57
59 59 59 59 59 60 62 61 61 61 61 61 61 61 61 62 61 60 59 59 59 60 59 59 60 59 59 59 59 59 57 57 57 56 57 56 56 57 56 56 56 56 56 56 56 57 56 55 55 55 52 51 51 52 53 58 58 59 57 58 56 57 58 57 56 56 56 58 57 57 57 55 55 57
60 60 60 59 59 60 60 60 61 61 60 60 60 60 60 60 60 59 59 59 59 59 59 58 59 59 59 59 59 59 58 57 57 57 57 57 56 55 56 56 56 57 55 56 57 57 57 56 57 55 53 51 51 53 53 51 52 59 59 54 55 55 57 56 54 56 55 55 56 57 57 58 58 58
60 61 60 60 59 60 61 60 60 61 61 60 61 61 61 60 59 59 59 58 58 58 59 59 58 57 58 58 58 58 57 57 57 58 58 58 57 56 56 56 55 55 54 55 56 57 57 58 57 56 55 55 56 56 56 55 55 56 58 59 52 55 57 57 54 53 52 54 55 53 52 54 53 56
59 59 60 61 60 60 60 60 61 61 61 60 60 57 59 59 59 59 59 58 58 57 58 58 58 58 59 57 57 59 58 57 56 57 57 56 56 56 55 54 55 55 54 55 56 56 57 59 58 57 57 57 56 56 54 55 56 59 60 61 56 53 52 53 56 54 52 53 52 51 51 50 50 51
60 60 59 60 60 60 61 60 60 61 60 59 59 59 57 57 58 57 57 57 57 58 59 59 57 57 57 56 56 56 57 57 57 56 57 57 56 55 54 54 55 56 54 55 56 57 58 58 57 56 56 56 55 55 55 56 55 56 58 59 61 57 55 53 53 54 55 53 51 49 49 50 51 48
60 60 59 60 61 61 61 60 59 60 59 59 59 58 58 58 58 58 59 58 57 59 59 58 57 58 58 56 56 57 57 57 57 58 58 56 56 56 56 56 56 56 55 55 56 56 57 57 56 56 56 54 54 54 54 56 55 56 57 58 59 59 60 56 55 54 54 54 54 53 52 49 45 42
60 60 60 60 60 60 60 60 59 60 59 59 58 58 59 58 58 59 59 59 58 59 58 58 57 57 57 56 56 55 56 57 57 56 56 56 56 56 56 56 55 55 55 55 55 56 57 57 57 55 54 54 54 54 55 56 56 57 57 57 57 57 56 57 58 56 56 56 55 54 53 53 53 52
60 61 60 60 60 60 60 59 59 59 59 59 58 58 59 59 60 59 59 59 59 58 57 58 57 57 56 56 56 56 56 54 55 56 56 56 56 55 55 55 54 54 55 55 53 55 56 55 56 56 55 55 54 53 55 55 55 55 56 56 55 55 55 55 54 54 54 55 56 55 54 53 53 53
MSLP
1019.19 1019.43 1019.59 1019.75 1019.83 1019.91 1019.99 1020.11 1020.19 1020.27 1020.43 1020.51 1020.63 1020.71 1021.11 1021.51 1022.35 1022.83 1022.99 1022.59 1022.35 1021.63 1021.55 1021.71 1021.03 1020.75 1020.75 1020.75 1020.63 1020.67 1020.63 1020.51 1020.51 1020.55 1020.59 1020.63 1020.63 1020.63 1020.71 1020.79 1020.79 1020.83 1020.83 1020.83 1020.83 1020.79 1020.71 1020.67 1020.59 1020.55 1020.51 1020.47 1020.47 1020.47 1020.47 1020.47 1020.43 1020.43 1020.47 1020.47 1020.47 1020.47 1020.47 1020.47 1020.47 1020.43 1020.43 1020.39 1020.35 1020.31 1020.31 1020.27 1020.27 1020.27
1019.07 1019.19 1019.47 1019.63 1019.75 1019.79 1019.91 1019.91 1020.03 1020.19 1020.27 1020.43 1020.55 1020.67 1020.75 1020.91 1021.59 1022.03 1022.67 1022.51 1022.07 1021.79 1021.47 1021.43 1021.27 1020.75 1020.63 1020.63 1020.63 1020.59 1020.51 1020.35 1020.35 1020.35 1020.43 1020.47 1020.47 1020.51 1020.59 1020.63 1020.67 1020.67 1020.71 1020.71 1020.71 1020.67 1020.63 1020.55 1020.51 1020.43 1020.39 1020.35 1020.31 1020.27 1020.27 1020.27 1020.23 1020.23 1020.19 1020.19 1020.15 1020.15 1020.11 1020.11 1020.11 1020.11 1020.11 1020.15 1020.11 1020.11 1020.07 1020.03 1020.03 1020.03
1018.87 1019.11 1019.31 1019.47 1019.59 1019.63 1019.75 1019.87 1019.99 1020.11 1020.23 1020.27 1020.43 1020.63 1020.79 1020.91 1021.03 1021.59 1022.03 1022.71 1021.75 1021.71 1021.47 1021.11 1020.91 1020.91 1020.71 1020.67 1020.67 1020.55 1020.39 1020.31 1020.27 1020.27 1020.31 1020.27 1020.31 1020.39 1020.39 1020.43 1020.47 1020.47 1020.51 1020.51 1020.51 1020.51 1020.47 1020.43 1020.39 1020.35 1020.31 1020.27 1020.23 1020.19 1020.15 1020.11 1020.03 1019.99 1019.95 1019.95 1019.91 1019.87 1019.83 1019.83 1019.83 1019.83 1019.83 1019.83 1019.83 1019.83 1019.79 1019.79 1019.75 1019.75
1018.67 1018.87 1019.11 1019.23 1019.35 1019.43 1019.59 1019.71 1019.79 1019.91 1020.03 1020.15 1020.31 1020.43 1020.59 1020.79 1020.99 1021.15 1021.67 1022.19 1021.99 1021.39 1021.27 1021.11 1020.87 1020.71 1020.71 1020.55 1020.63 1020.43 1020.31 1020.23 1020.19 1020.19 1020.15 1020.11 1020.19 1020.23 1020.23 1020.23 1020.27 1020.31 1020.31 1020.35 1020.31 1020.31 1020.27 1020.31 1020.27 1020.23 1020.19 1020.15 1020.11 1020.03 1019.99 1019.95 1019.91 1019.87 1019.83 1019.79 1019.75 1019.71 1019.67 1019.63 1019.63 1019.59 1019.55 1019.55 1019.55 1019.55 1019.51 1019.51 1019.47 1019.47
1018.47 1018.63 1018.83 1018.95 1019.03 1019.07 1019.27 1019.39 1019.51 1019.67 1019.79 1019.99 1020.15 1020.27 1020.43 1020.67 1020.83 1020.95 1021.35 1021.71 1021.75 1021.27 1021.07 1021.11 1020.91 1020.75 1020.71 1020.71 1020.47 1020.51 1020.39 1020.27 1020.15 1020.07 1020.03 1020.07 1020.15 1020.15 1020.19 1020.15 1020.15 1020.19 1020.19 1020.23 1020.19 1020.15 1020.15 1020.11 1020.07 1020.07 1020.03 1019.95 1019.87 1019.83 1019.79 1019.75 1019.75 1019.75 1019.71 1019.63 1019.59 1019.51 1019.47 1019.43 1019.43 1019.43 1019.39 1019.31 1019.27 1019.27 1019.27 1019.23 1019.23 1019.19
1018.27 1018.39 1018.59 1018.71 1018.87 1018.91 1019.07 1019.19 1019.35 1019.39 1019.59 1019.79 1019.95 1020.07 1020.11 1020.27 1020.43 1020.43 1020.75 1021.15 1021.23 1021.27 1020.99 1021.03 1020.87 1020.83 1020.63 1020.91 1020.43 1020.55 1020.47 1020.35 1020.19 1020.19 1020.11 1020.11 1020.11 1020.15 1020.11 1020.11 1020.03 1020.03 1020.07 1020.07 1020.03 1019.99 1019.99 1019.95 1019.91 1019.83 1019.75 1019.71 1019.67 1019.59 1019.55 1019.51 1019.47 1019.43 1019.35 1019.31 1019.27 1019.27 1019.27 1019.31 1019.31 1019.27 1019.23 1019.23 1019.15 1019.11 1019.03 1018.99 1018.99 1018.95
1018.03 1018.27 1018.35 1018.47 1018.63 1018.83 1019.03 1019.07 1019.07 1019.15 1019.27 1019.43 1019.59 1019.71 1019.79 1019.91 1019.99 1020.15 1020.19 1020.55 1021.11 1021.27 1021.15 1020.83 1020.91 1020.75 1020.63 1020.67 1020.35 1020.19 1020.19 1020.15 1020.23 1020.31 1020.23 1020.19 1020.07 1019.99 1019.99 1019.99 1019.83 1019.75 1019.75 1019.79 1019.79 1019.75 1019.75 1019.75 1019.71 1019.71 1019.67 1019.59 1019.51 1019.43 1019.35 1019.27 1019.15 1019.07 1019.03 1018.99 1018.99 1018.99 1019.03 1019.07 1019.07 1019.07 1019.07 1019.03 1018.95 1018.91 1018.83 1018.79 1018.75 1018.71
1017.75 1017.91 1018.19 1018.19 1018.39 1018.59 1018.75 1018.83 1019.03 1019.11 1019.11 1019.27 1019.43 1019.51 1019.67 1019.75 1019.87 1019.91 1020.11 1020.23 1020.55 1020.83 1021.07 1020.79 1020.63 1020.39 1020.51 1020.35 1020.07 1020.07 1020.11 1020.19 1020.19 1020.15 1020.15 1020.07 1020.03 1019.91 1019.79 1019.75 1019.71 1019.51 1019.51 1019.55 1019.55 1019.55 1019.59 1019.59 1019.59 1019.59 1019.55 1019.51 1019.47 1019.39 1019.35 1019.27 1019.19 1019.07 1018.99 1018.91 1018.87 1018.83 1018.79 1018.79 1018.79 1018.75 1018.75 1018.71 1018.71 1018.67 1018.59 1018.51 1018.43 1018.39
1017.31 1017.51 1017.63 1017.79 1018.07 1018.27 1018.55 1018.63 1018.79 1018.95 1019.11 1019.15 1019.31 1019.47 1019.59 1019.63 1019.59 1019.75 1019.99 1020.19 1020.31 1020.63 1020.83 1020.71 1020.47 1020.35 1020.27 1020.11 1020.03 1020.03 1020.27 1020.23 1020.19 1020.15 1020.15 1020.07 1020.03 1019.91 1019.71 1019.63 1019.47 1019.39 1019.35 1019.35 1019.35 1019.31 1019.31 1019.35 1019.39 1019.39 1019.39 1019.39 1019.31 1019.23 1019.19 1019.15 1019.15 1019.11 1019.03 1018.91 1018.83 1018.79 1018.71 1018.67 1018.63 1018.55 1018.55 1018.51 1018.51 1018.47 1018.43 1018.31 1018.23 1018.15
1016.83 1017.03 1017.23 1017.43 1017.67 1017.91 1018.19 1018.39 1018.55 1018.79 1018.91 1018.99 1019.15 1019.27 1019.35 1019.43 1019.55 1019.71 1019.83 1019.95 1020.19 1020.39 1020.47 1020.55 1020.51 1020.31 1020.31 1020.19 1020.07 1019.99 1020.11 1020.31 1020.43 1020.31 1020.15 1020.07 1020.03 1019.99 1019.87 1019.63 1019.43 1019.31 1019.23 1019.23 1019.19 1019.19 1019.15 1019.11 1019.11 1019.11 1019.15 1019.11 1019.07 1019.07 1019.03 1018.95 1018.87 1018.79 1018.75 1018.75 1018.75 1018.67 1018.59 1018.55 1018.47 1018.39 1018.31 1018.27 1018.23 1018.19 1018.19 1018.11 1018.03 1017.95
1016.35 1016.55 1016.75 1016.99 1017.19 1017.47 1017.71 1018.19 1018.51 1018.55 1018.63 1018.75 1018.91 1018.91 1019.03 1019.11 1019.31 1019.51 1019.67 1019.79 1020.03 1020.19 1020.35 1020.39 1020.39 1020.39 1020.23 1020.31 1020.39 1020.11 1019.99 1020.19 1020.39 1020.71 1020.67 1020.43 1019.99 1019.95 1019.95 1019.83 1019.43 1019.27 1019.23 1019.07 1019.07 1019.03 1018.99 1019.03 1019.03 1019.03 1019.07 1019.03 1018.91 1018.87 1018.79 1018.75 1018.71 1018.63 1018.51 1018.47 1018.39 1018.39 1018.35 1018.31 1018.23 1018.19 1018.07 1017.99 1017.95 1017.87 1017.87 1017.83 1017.83 1017.79
1015.95 1016.11 1016.27 1016.47 1016.71 1016.99 1017.35 1017.59 1017.99 1018.31 1018.51 1018.63 1018.63 1018.59 1018.71 1018.87 1019.11 1019.35 1019.47 1019.67 1019.83 1020.03 1020.23 1020.27 1020.23 1020.23 1020.27 1020.27 1020.19 1020.15 1020.19 1020.43 1020.63 1020.79 1021.19 1021.27 1020.51 1020.19 1019.91 1019.75 1019.75 1019.47 1019.39 1019.35 1019.11 1018.87 1018.91 1018.91 1018.91 1018.91 1018.99 1018.91 1018.87 1018.79 1018.67 1018.55 1018.55 1018.47 1018.39 1018.27 1018.19 1018.11 1018.03 1017.99 1017.95 1017.91 1017.83 1017.79 1017.71 1017.63 1017.59 1017.55 1017.51 1017.47
1015.59 1015.75 1015.87 1016.11 1016.39 1016.63 1016.91 1017.15 1017.07 1017.27 1017.59 1017.99 1018.27 1018.23 1018.31 1018.59 1018.87 1019.15 1019.35 1019.51 1019.71 1019.91 1020.07 1020.15 1020.15 1020.23 1020.27 1020.19 1020.27 1020.39 1020.51 1020.59 1020.71 1020.55 1020.79 1020.87 1020.43 1020.19 1020.07 1019.63 1019.43 1019.43 1019.51 1019.35 1019.19 1019.07 1018.91 1018.99 1018.91 1018.95 1018.99 1018.79 1018.71 1018.59 1018.55 1018.43 1018.35 1018.31 1018.19 1018.11 1017.95 1017.83 1017.75 1017.71 1017.67 1017.59 1017.51 1017.47 1017.43 1017.35 1017.31 1017.23 1017.19 1017.15
1015.19 1015.23 1015.51 1015.75 1016.03 1016.35 1016.51 1016.63 1016.67 1016.83 1017.19 1017.35 1017.35 1017.55 1017.91 1018.23 1018.59 1018.87 1019.15 1019.39 1019.51 1019.67 1019.99 1019.99 1019.99 1020.23 1020.15 1019.95 1019.99 1020.11 1020.07 1020.07 1020.31 1020.59 1020.75 1020.91 1020.35 1020.23 1020.15 1019.79 1019.43 1019.23 1019.39 1019.47 1019.39 1019.11 1018.91 1018.95 1018.91 1018.91 1018.95 1018.71 1018.71 1018.63 1018.51 1018.35 1018.23 1018.11 1017.99 1017.87 1017.71 1017.59 1017.51 1017.43 1017.39 1017.35 1017.27 1017.23 1017.19 1017.15 1017.11 1017.03 1016.95 1016.91
1014.79 1014.91 1015.27 1015.67 1015.95 1016.19 1016.27 1016.23 1016.35 1016.71 1016.91 1017.07 1017.15 1017.15 1017.27 1017.43 1017.79 1018.43 1018.87 1019.03 1019.15 1019.43 1019.59 1019.55 1019.83 1019.91 1019.83 1019.67 1019.71 1019.83 1019.79 1019.79 1019.99 1020.15 1020.19 1020.27 1020.31 1020.47 1020.55 1020.43 1019.51 1019.11 1019.27 1019.47 1019.51 1019.19 1018.87 1018.95 1019.15 1018.95 1018.79 1018.55 1018.47 1018.35 1018.19 1018.07 1017.99 1017.91 1017.79 1017.63 1017.51 1017.43 1017.35 1017.31 1017.19 1017.07 1017.03 1017.03 1016.99 1016.95 1016.87 1016.83 1016.79 1016.71
1014.35 1014.75 1015.39 1015.91 1016.35 1016.31 1015.95 1015.91 1016.23 1016.59 1016.67 1016.83 1016.99 1017.11 1017.19 1017.31 1017.35 1017.39 1017.87 1018.47 1019.03 1019.23 1019.35 1019.51 1019.51 1019.63 1019.63 1019.51 1019.55 1019.67 1019.71 1019.71 1019.79 1019.87 1019.99 1020.11 1020.23 1020.27 1020.35 1020.19 1020.19 1019.43 1019.31 1019.51 1019.55 1019.35 1018.79 1018.87 1019.03 1018.95 1018.55 1018.31 1018.19 1018.03 1017.87 1017.79 1017.67 1017.55 1017.43 1017.31 1017.23 1017.19 1017.11 1017.03 1016.91 1016.83 1016.79 1016.75 1016.67 1016.67 1016.63 1016.55 1016.51 1016.43
1014.03 1014.67 1015.39 1015.59 1015.47 1015.55 1015.75 1015.87 1016.03 1016.27 1016.39 1016.43 1016.67 1016.91 1017.07 1017.15 1017.27 1017.43 1017.55 1017.75 1017.99 1018.35 1018.83 1019.07 1019.31 1019.31 1019.31 1019.47 1019.39 1019.31 1019.39 1019.39 1019.79 1019.79 1019.87 1019.87 1019.99 1020.03 1020.11 1019.91 1019.83 1019.43 1019.31 1019.51 1019.63 1019.55 1018.95 1018.87 1018.83 1018.71 1018.27 1018.11 1017.99 1017.83 1017.59 1017.47 1017.39 1017.27 1017.15 1017.03 1017.03 1016.95 1016.83 1016.75 1016.67 1016.63 1016.59 1016.51 1016.47 1016.39 1016.35 1016.23 1016.15 1016.11
1013.67 1014.27 1014.51 1014.63 1015.27 1015.59 1015.67 1015.71 1015.87 1015.99 1016.19 1016.35 1016.67 1016.99 1017.15 1017.23 1017.31 1017.47 1017.71 1017.87 1017.99 1018.07 1018.35 1018.67 1018.91 1018.79 1018.87 1019.03 1018.99 1018.99 1019.11 1019.51 1019.67 1019.71 1019.71 1019.67 1019.83 1019.87 1019.83 1019.59 1019.59 1019.35 1019.35 1019.59 1019.67 1019.63 1019.11 1018.71 1018.71 1018.55 1018.03 1017.83 1017.83 1017.63 1017.43 1017.39 1017.31 1017.19 1017.07 1016.99 1016.87 1016.79 1016.67 1016.59 1016.51 1016.39 1016.31 1016.23 1016.15 1016.07 1015.99 1015.95 1015.91 1015.83
1013.11 1013.59 1013.79 1014.07 1014.79 1015.39 1015.47 1015.43 1015.51 1015.79 1015.99 1016.27 1016.55 1016.79 1016.99 1017.11 1017.11 1017.27 1017.59 1017.79 1017.87 1018.07 1018.15 1018.27 1018.35 1018.51 1018.59 1018.63 1018.71 1018.87 1019.03 1019.19 1019.23 1019.31 1019.39 1019.43 1019.55 1019.55 1019.51 1019.51 1019.43 1019.31 1019.19 1019.39 1019.67 1019.63 1018.99 1018.67 1018.71 1018.31 1017.95 1017.75 1017.71 1017.43 1017.35 1017.35 1017.15 1017.03 1016.91 1016.83 1016.67 1016.55 1016.47 1016.39 1016.27 1016.19 1016.11 1015.99 1015.91 1015.79 1015.71 1015.63 1015.59 1015.51
1012.59 1012.91 1013.27 1013.71 1014.19 1014.59 1014.83 1014.83 1014.95 1015.15 1015.47 1015.95 1016.35 1016.67 1016.91 1017.07 1017.19 1017.35 1017.39 1017.43 1017.55 1017.71 1017.91 1018.07 1018.19 1018.27 1018.39 1018.51 1018.67 1018.75 1018.87 1018.95 1019.03 1019.15 1019.23 1019.35 1019.51 1019.67 1019.79 1019.75 1019.47 1019.47 1019.07 1019.15 1019.35 1019.47 1019.07 1018.55 1018.63 1018.23 1017.87 1017.79 1017.67 1017.43 1017.31 1017.07 1016.91 1016.79 1016.71 1016.55 1016.43 1016.27 1016.15 1016.07 1015.95 1015.87 1015.79 1015.67 1015.59 1015.47 1015.39 1015.31 1015.19 1015.11
1012.15 1012.43 1012.67 1013.07 1013.59 1013.91 1014.15 1014.23 1014.55 1014.91 1015.19 1015.71 1016.03 1016.35 1016.67 1016.95 1017.19 1017.43 1017.39 1017.51 1017.63 1017.75 1017.95 1018.07 1018.19 1018.31 1018.43 1018.59 1018.63 1018.71 1018.83 1018.87 1018.95 1019.15 1019.35 1019.39 1019.43 1019.75 1019.83 1019.67 1019.67 1019.35 1019.07 1019.07 1019.15 1019.23 1019.07 1018.51 1018.47 1018.23 1017.95 1017.83 1017.59 1017.39 1017.15 1016.87 1016.67 1016.55 1016.43 1016.31 1016.15 1016.03 1015.87 1015.71 1015.55 1015.43 1015.31 1015.23 1015.15 1015.03 1014.95 1014.91 1014.83 1014.75
1011.83 1012.03 1012.27 1012.59 1013.03 1013.43 1013.67 1013.91 1014.31 1014.67 1014.99 1015.47 1015.79 1016.11 1016.59 1016.99 1017.27 1017.47 1017.43 1017.55 1017.79 1017.91 1018.03 1018.11 1018.19 1018.35 1018.43 1018.51 1018.59 1018.63 1018.75 1018.83 1018.91 1018.99 1019.27 1019.15 1019.31 1019.55 1019.67 1019.71 1019.51 1019.27 1019.15 1018.91 1018.91 1019.23 1018.79 1018.47 1018.43 1018.35 1017.91 1017.75 1017.39 1017.19 1016.99 1016.79 1016.59 1016.43 1016.27 1016.07 1015.91 1015.75 1015.59 1015.43 1015.27 1015.15 1015.03 1014.87 1014.75 1014.67 1014.55 1014.47 1014.43 1014.35
1011.63 1011.91 1012.03 1012.31 1012.63 1012.95 1013.27 1013.63 1013.99 1014.39 1014.67 1015.15 1015.51 1015.83 1016.23 1016.71 1017.03 1017.11 1017.19 1017.51 1017.79 1017.99 1018.11 1018.23 1018.27 1018.35 1018.39 1018.43 1018.47 1018.55 1018.71 1018.79 1018.83 1018.87 1018.91 1019.07 1019.27 1019.39 1019.39 1019.43 1019.67 1019.63 1019.15 1018.75 1018.79 1019.03 1018.55 1018.59 1018.27 1018.39 1018.11 1017.75 1017.07 1017.03 1016.87 1016.79 1016.63 1016.43 1016.19 1015.95 1015.71 1015.51 1015.35 1015.23 1015.11 1014.99 1014.79 1014.63 1014.47 1014.35 1014.23 1014.15 1014.15 1014.07
1011.71 1011.83 1011.99 1012.19 1012.47 1012.75 1013.03 1013.35 1013.83 1014.23 1014.39 1014.67 1015.11 1015.55 1015.99 1016.39 1016.59 1016.79 1016.99 1017.15 1017.31 1017.71 1017.91 1018.07 1018.15 1018.31 1018.47 1018.51 1018.47 1018.47 1018.47 1018.51 1018.55 1018.63 1018.79 1018.87 1018.99 1019.15 1019.19 1019.31 1019.47 1019.55 1019.19 1018.67 1018.75 1018.87 1018.59 1018.55 1018.35 1018.31 1018.31 1018.35 1017.59 1016.87 1016.83 1016.75 1016.55 1016.27 1016.03 1015.83 1015.67 1015.31 1015.19 1015.07 1014.83 1014.63 1014.51 1014.39 1014.27 1014.15 1014.03 1013.91 1013.91 1013.83
1011.43 1011.71 1011.83 1011.99 1012.31 1012.63 1012.83 1013.27 1013.67 1014.07 1014.31 1014.47 1014.87 1015.27 1015.59 1015.71 1015.91 1016.47 1016.83 1017.11 1017.27 1017.59 1017.75 1017.95 1018.15 1018.31 1018.39 1018.43 1018.43 1018.43 1018.39 1018.39 1018.39 1018.47 1018.59 1018.67 1018.71 1018.83 1019.07 1019.23 1019.31 1019.15 1018.87 1018.55 1018.67 1018.87 1018.83 1018.59 1018.43 1018.27 1018.11 1018.19 1017.67 1017.31 1016.67 1016.71 1016.39 1016.11 1015.79 1015.67 1015.51 1015.11 1014.99 1014.75 1014.59 1014.39 1014.15 1014.07 1013.99 1013.91 1013.83 1013.75 1013.63 1013.67
1011.07 1011.27 1011.55 1011.83 1012.15 1012.43 1012.79 1013.15 1013.51 1013.91 1014.15 1014.39 1014.75 1015.11 1015.35 1015.71 1015.91 1016.27 1016.55 1016.91 1017.23 1017.43 1017.71 1017.95 1018.11 1018.15 1018.23 1018.31 1018.31 1018.31 1018.31 1018.31 1018.35 1018.35 1018.39 1018.47 1018.59 1018.67 1018.71 1018.91 1019.11 1019.19 1018.87 1018.39 1018.63 1018.75 1018.83 1018.59 1018.19 1018.11 1017.99 1018.07 1017.43 1017.31 1016.99 1016.47 1016.11 1015.75 1015.55 1015.39 1015.31 1014.99 1014.75 1014.59 1014.43 1014.23 1013.95 1013.71 1013.51 1013.43 1013.39 1013.35 1013.31 1013.27
1010.59 1010.95 1011.27 1011.59 1011.95 1012.31 1012.63 1013.03 1013.47 1013.79 1014.03 1014.35 1014.79 1015.35 1015.51 1015.63 1015.95 1016.27 1016.63 1016.91 1017.15 1017.43 1017.67 1017.83 1017.95 1018.07 1018.15 1018.19 1018.19 1018.23 1018.19 1018.23 1018.31 1018.31 1018.31 1018.39 1018.51 1018.59 1018.67 1018.75 1018.83 1018.79 1018.55 1018.39 1018.43 1018.55 1018.71 1018.55 1018.11 1018.15 1017.95 1017.75 1017.79 1017.35 1017.23 1016.79 1015.79 1015.43 1015.39 1015.11 1014.91 1014.67 1014.43 1014.35 1014.23 1013.99 1013.71 1013.51 1013.27 1013.15 1013.11 1012.99 1012.91 1012.83
1010.27 1010.75 1011.11 1011.39 1011.87 1012.31 1012.71 1013.19 1013.63 1013.83 1014.07 1014.47 1015.07 1015.27 1015.43 1015.75 1016.03 1016.35 1016.63 1016.87 1017.07 1017.35 1017.51 1017.67 1017.83 1017.83 1017.99 1017.99 1018.07 1018.07 1018.11 1018.19 1018.23 1018.27 1018.27 1018.31 1018.43 1018.51 1018.55 1018.63 1018.63 1018.55 1018.47 1018.39 1018.31 1018.39 1018.43 1018.39 1018.03 1017.83 1017.91 1017.91 1017.87 1017.63 1017.11 1016.23 1015.87 1015.51 1015.31 1014.87 1014.71 1014.43 1014.19 1014.07 1013.95 1013.79 1013.51 1013.31 1013.15 1012.95 1012.83 1012.59 1012.35 1012.23
1009.83 1010.27 1010.75 1011.35 1011.99 1012.47 1012.91 1013.35 1013.79 1014.07 1014.39 1014.75 1015.03 1015.31 1015.59 1015.87 1016.11 1016.31 1016.51 1016.75 1016.99 1017.19 1017.31 1017.35 1017.43 1017.47 1017.55 1017.67 1017.71 1017.83 1017.99 1018.11 1018.11 1018.11 1018.07 1018.15 1018.27 1018.39 1018.47 1018.47 1018.43 1018.35 1018.31 1018.15 1018.07 1018.11 1018.15 1018.11 1017.91 1017.71 1017.79 1017.79 1017.83 1017.23 1017.03 1016.43 1015.95 1015.51 1015.19 1015.03 1014.59 1014.07 1013.91 1013.75 1013.63 1013.51 1013.31 1013.15 1012.99 1012.79 1012.63 1012.43 1012.23 1012.03
1009.55 1010.23 1010.87 1011.51 1012.19 1012.75 1013.07 1013.47 1013.79 1014.11 1014.51 1014.79 1015.15 1015.47 1015.71 1015.91 1016.07 1016.19 1016.39 1016.67 1016.79 1016.87 1016.99 1017.07 1017.03 1017.07 1017.43 1017.55 1017.67 1017.83 1017.91 1017.87 1017.71 1017.83 1017.87 1017.91 1017.99 1018.15 1018.27 1018.23 1018.03 1017.99 1017.99 1017.99 1017.91 1017.87 1017.91 1017.87 1017.79 1017.75 1017.63 1017.39 1017.27 1017.03 1016.55 1016.27 1015.83 1015.31 1015.03 1014.83 1014.35 1013.99 1013.67 1013.47 1013.31 1013.19 1013.11 1012.99 1012.83 1012.59 1012.27 1012.15 1011.95 1011.79
1009.67 1010.39 1010.99 1011.63 1012.03 1012.51 1012.87 1013.15 1013.63 1014.11 1014.75 1015.15 1015.51 1015.63 1015.79 1015.95 1016.07 1016.19 1016.15 1016.19 1016.35 1016.55 1016.71 1016.79 1016.91 1017.15 1017.31 1017.55 1017.71 1017.63 1017.63 1017.59 1017.63 1017.75 1017.79 1017.91 1017.99 1018.11 1018.39 1018.47 1018.23 1018.03 1017.75 1017.67 1017.63 1017.59 1017.55 1017.51 1017.47 1017.47 1017.47 1016.99 1016.67 1016.47 1016.15 1016.07 1015.83 1015.31 1014.75 1014.35 1014.27 1014.43 1013.39 1013.15 1012.99 1012.83 1012.67 1012.59 1012.43 1012.23 1011.99 1011.75 1011.43 1011.27
1009.31 1010.31 1011.23 1011.75 1012.11 1012.55 1012.95 1013.47 1013.99 1014.51 1014.83 1015.15 1015.39 1015.63 1015.83 1015.99 1016.11 1016.15 1016.23 1016.31 1016.39 1016.43 1016.51 1016.63 1016.91 1017.15 1017.31 1017.31 1017.31 1017.47 1017.51 1017.43 1017.47 1017.67 1017.75 1017.87 1017.95 1018.19 1018.43 1018.35 1018.11 1018.03 1017.91 1017.71 1017.47 1017.27 1017.27 1017.23 1017.19 1017.11 1017.03 1016.91 1016.75 1016.15 1015.91 1015.79 1015.51 1014.99 1014.55 1014.11 1013.83 1013.55 1013.27 1013.03 1012.75 1012.47 1012.27 1012.31 1012.19 1011.95 1011.67 1011.47 1011.11 1010.75
1009.35 1010.19 1010.87 1011.43 1011.95 1012.39 1012.91 1013.43 1013.99 1014.47 1014.83 1015.15 1015.35 1015.55 1015.83 1015.99 1016.07 1016.11 1016.23 1016.15 1016.19 1016.35 1016.51 1016.47 1016.59 1016.71 1016.99 1017.03 1017.23 1017.35 1017.19 1017.11 1017.27 1017.63 1017.71 1017.95 1017.95 1018.19 1018.43 1018.35 1018.19 1018.11 1018.03 1017.75 1017.55 1017.27 1017.07 1016.91 1016.87 1016.79 1016.63 1016.43 1016.31 1016.11 1016.03 1015.75 1014.91 1014.39 1014.23 1013.79 1013.59 1013.39 1013.03 1012.75 1012.55 1012.27 1012.11 1012.07 1011.91 1011.59 1011.27 1010.95 1010.63 1010.27
1008.75 1009.83 1010.59 1011.15 1011.63 1012.19 1012.71 1013.27 1013.75 1014.15 1014.43 1014.75 1015.23 1015.51 1015.75 1015.87 1015.91 1015.95 1015.95 1015.91 1015.99 1016.23 1016.19 1016.23 1016.39 1016.51 1016.71 1016.79 1016.91 1016.91 1016.83 1016.95 1017.23 1017.51 1017.51 1017.63 1018.03 1018.07 1018.11 1018.19 1017.99 1018.07 1018.23 1017.99 1017.67 1017.39 1017.11 1016.91 1016.67 1016.35 1016.11 1015.91 1015.71 1015.55 1015.39 1015.35 1014.79 1014.19 1013.91 1013.79 1013.67 1013.43 1012.87 1012.59 1012.31 1012.15 1012.03 1011.91 1011.71 1011.43 1010.95 1010.47 1010.07 1009.63
1008.55 1009.55 1010.35 1011.07 1011.55 1011.91 1012.39 1012.83 1013.27 1013.63 1013.95 1014.23 1014.59 1014.99 1015.35 1015.55 1015.71 1015.71 1015.71 1015.75 1015.91 1016.03 1016.07 1016.23 1016.27 1016.39 1016.51 1016.51 1016.59 1016.55 1016.63 1016.67 1016.79 1017.11 1017.43 1017.59 1017.91 1018.07 1018.19 1018.15 1017.99 1017.91 1017.83 1017.67 1017.39 1017.15 1017.15 1016.87 1016.67 1016.31 1015.87 1015.59 1015.23 1014.63 1014.47 1014.51 1014.55 1014.15 1013.83 1013.55 1013.39 1013.27 1012.91 1012.47 1012.19 1011.91 1011.75 1011.51 1011.39 1011.35 1010.71 1010.11 1009.59 1009.11
1008.39 1008.91 1009.75 1010.63 1011.15 1011.59 1012.07 1012.47 1012.83 1013.19 1013.43 1013.67 1013.95 1014.35 1014.79 1015.03 1015.19 1015.27 1015.19 1015.35 1015.59 1015.67 1015.87 1015.99 1016.15 1016.27 1016.35 1016.39 1016.31 1016.39 1016.55 1016.59 1016.63 1016.75 1016.95 1017.31 1017.71 1018.03 1018.19 1018.15 1017.99 1017.83 1017.75 1017.63 1017.35 1017.03 1016.99 1016.67 1016.55 1016.43 1016.19 1015.63 1015.31 1014.75 1014.03 1013.99 1014.11 1014.03 1013.95 1013.55 1013.15 1013.03 1012.71 1012.39 1012.11 1011.83 1011.55 1011.31 1011.07 1011.03 1010.75 1010.03 1009.23 1008.67
1008.23 1008.91 1009.59 1010.19 1010.79 1011.19 1011.55 1012.03 1012.39 1012.79 1012.99 1013.27 1013.63 1013.87 1014.07 1014.35 1014.67 1014.75 1014.75 1015.07 1015.27 1015.39 1015.47 1015.67 1015.79 1015.91 1016.11 1016.15 1016.15 1016.35 1016.39 1016.35 1016.43 1016.67 1016.87 1017.19 1017.55 1017.71 1017.71 1017.67 1017.71 1017.79 1017.71 1017.39 1017.19 1016.99 1016.87 1016.59 1016.31 1016.43 1016.15 1015.51 1015.31 1014.95 1014.19 1013.87 1013.79 1013.75 1013.87 1013.67 1013.23 1012.83 1012.67 1012.39 1012.07 1011.71 1011.31 1011.15 1010.83 1010.63 1010.27 1009.71 1008.91 1008.31
1008.31 1008.99 1009.59 1009.91 1010.31 1010.67 1010.99 1011.51 1012.03 1012.43 1012.75 1013.03 1013.27 1013.63 1013.87 1013.99 1014.15 1014.35 1014.67 1014.91 1015.03 1015.15 1015.39 1015.51 1015.55 1015.79 1015.91 1015.91 1015.95 1016.07 1016.19 1016.35 1016.51 1016.63 1016.75 1017.03 1017.19 1017.35 1017.51 1017.67 1017.63 1017.63 1017.55 1017.31 1017.03 1016.75 1016.59 1016.47 1016.15 1016.03 1016.19 1015.99 1015.55 1014.91 1014.19 1013.51 1013.75 1013.31 1013.27 1013.39 1013.35 1012.95 1012.67 1012.47 1012.07 1011.71 1011.23 1010.91 1010.67 1010.15 1009.79 1009.27 1008.51 1007.95
1008.07 1008.67 1009.07 1009.47 1009.83 1010.15 1010.63 1011.27 1011.71 1012.07 1012.43 1012.79 1013.11 1013.39 1013.63 1013.87 1013.99 1014.23 1014.47 1014.59 1014.75 1014.95 1015.19 1015.39 1015.51 1015.55 1015.51 1015.67 1015.75 1015.83 1015.99 1016.19 1016.31 1016.31 1016.47 1016.71 1017.07 1017.31 1017.47 1017.63 1017.63 1017.43 1017.47 1017.07 1016.71 1016.43 1016.19 1015.95 1015.67 1015.67 1015.79 1015.87 1015.59 1014.87 1014.67 1014.83 1014.11 1013.15 1012.95 1013.07 1013.23 1013.07 1012.59 1012.43 1012.23 1011.79 1011.43 1010.91 1010.27 1009.91 1009.47 1008.87 1008.27 1007.79
1007.83 1008.15 1008.55 1008.87 1009.39 1009.83 1010.35 1010.95 1011.47 1011.79 1012.23 1012.51 1012.79 1012.99 1013.19 1013.31 1013.59 1013.87 1014.15 1014.43 1014.67 1014.87 1014.99 1015.07 1015.23 1015.35 1015.39 1015.55 1015.67 1015.87 1015.95 1015.95 1015.95 1016.07 1016.27 1016.59 1016.91 1017.27 1017.51 1017.59 1017.55 1017.39 1017.35 1016.91 1016.47 1016.07 1015.83 1015.47 1015.31 1015.39 1015.31 1015.19 1014.91 1014.63 1014.51 1014.39 1014.07 1013.43 1012.99 1012.51 1012.59 1012.71 1012.51 1012.35 1012.19 1011.99 1011.51 1010.95 1010.55 1009.99 1009.15 1008.43 1007.83 1007.15
1007.79 1008.15 1008.51 1008.67 1009.03 1009.55 1010.15 1010.71 1011.11 1011.55 1011.91 1012.23 1012.55 1012.83 1012.91 1013.03 1013.27 1013.51 1013.79 1014.11 1014.39 1014.63 1014.79 1014.87 1014.95 1014.99 1015.15 1015.43 1015.59 1015.63 1015.55 1015.67 1015.83 1016.03 1016.27 1016.59 1016.87 1017.15 1017.31 1017.55 1017.39 1017.27 1017.15 1016.63 1016.31 1015.99 1015.51 1015.11 1015.07 1015.11 1015.03 1014.79 1014.55 1014.43 1014.27 1013.71 1012.95 1012.39 1012.31 1012.15 1012.15 1012.23 1012.19 1012.19 1012.11 1011.91 1011.55 1010.95 1010.59 1010.07 1009.35 1008.67 1007.95 1007.15
1007.39 1007.83 1008.35 1008.55 1008.83 1009.43 1009.95 1010.51 1011.03 1011.35 1011.67 1012.07 1012.27 1012.47 1012.79 1013.03 1013.07 1013.47 1013.87 1014.07 1014.19 1014.27 1014.35 1014.55 1014.75 1014.91 1015.07 1015.31 1015.43 1015.55 1015.39 1015.39 1015.55 1015.79 1016.15 1016.51 1016.79 1016.95 1017.11 1017.31 1017.07 1016.83 1016.87 1016.47 1016.07 1015.67 1015.27 1014.99 1014.95 1014.83 1014.63 1014.51 1014.31 1013.95 1013.39 1013.27 1013.11 1012.59 1012.31 1012.07 1011.75 1011.67 1011.71 1011.67 1011.59 1011.47 1011.23 1010.95 1010.59 1010.07 1009.35 1008.51 1008.07 1007.51
1007.31 1007.67 1008.03 1008.43 1008.87 1009.43 1009.95 1010.39 1010.83 1011.11 1011.39 1011.79 1011.99 1012.19 1012.43 1012.91 1013.43 1013.63 1013.59 1013.79 1013.95 1014.03 1014.15 1014.39 1014.63 1014.71 1014.79 1015.03 1015.23 1015.27 1015.27 1015.43 1015.59 1015.71 1015.99 1016.35 1016.67 1016.75 1016.63 1016.63 1016.71 1016.71 1016.63 1016.35 1015.95 1015.67 1015.27 1014.91 1014.75 1014.63 1014.43 1014.39 1014.23 1014.11 1013.75 1013.19 1013.11 1012.79 1012.35 1011.95 1011.63 1011.43 1011.23 1011.11 1010.99 1010.79 1010.55 1010.35 1010.23 1010.03 1009.75 1009.35 1008.87 1008.15
1007.23 1007.47 1007.83 1008.35 1008.91 1009.43 1009.91 1010.27 1010.63 1010.87 1011.11 1011.39 1011.71 1012.11 1012.31 1012.67 1012.99 1013.11 1013.19 1013.35 1013.55 1013.71 1013.99 1014.15 1014.39 1014.47 1014.59 1014.87 1015.11 1015.31 1015.35 1015.31 1015.43 1015.59 1015.83 1016.11 1016.39 1016.55 1016.59 1016.55 1016.63 1016.55 1016.39 1016.15 1015.83 1015.39 1014.99 1014.71 1014.51 1014.55 1014.43 1014.15 1014.11 1013.95 1013.51 1013.19 1012.83 1012.55 1012.31 1012.03 1011.71 1011.51 1011.27 1010.83 1010.43 1010.11 1009.87 1009.63 1009.43 1009.23 1008.99 1008.79 1008.51 1008.07
1007.07 1007.23 1007.71 1008.35 1008.83 1009.35 1009.79 1010.11 1010.39 1010.67 1010.95 1011.27 1011.59 1011.91 1012.31 1012.47 1012.51 1012.87 1013.03 1013.15 1013.27 1013.55 1013.83 1013.99 1014.19 1014.39 1014.63 1014.87 1014.99 1014.95 1015.07 1015.27 1015.39 1015.59 1015.91 1016.19 1016.35 1016.43 1016.51 1016.47 1016.43 1016.35 1016.07 1015.91 1015.83 1015.27 1014.87 1014.67 1014.35 1014.23 1014.15 1013.91 1013.91 1013.91 1013.47 1013.23 1013.03 1012.71 1012.35 1012.11 1011.79 1011.59 1011.43 1011.07 1010.67 1010.15 1009.75 1009.23 1008.79 1008.67 1008.39 1008.11 1007.71 1007.31
Wind_Speed
6 5 6 6 4 4 3 3 4 4 3 4 4 6 7 6 4 3 2 3 3 2 2 2 1 1 1 2 1 2 3 5 5 4 4 5 4 6 8 9 9 9 10 10 11 11 12 12 12 11 10 11 11 11 11 11 12 12 11 12 12 11 11 11 11 11 12 12 11 12 12 13 13 12
5 5 4 4 4 3 3 4 3 4 5 5 5 5 4 5 6 5 4 4 3 3 1 3 2 2 2 2 1 1 3 4 5 4 4 4 4 7 9 9 9 9 9 10 10 10 11 11 11 11 12 11 11 10 10 10 11 12 13 12 12 11 11 11 11 12 12 13 13 13 13 13 13 12
6 6 6 4 4 3 4 3 2 2 4 5 4 4 4 4 4 5 3 3 2 2 3 2 2 2 1 1 1 2 2 3 4 4 3 3 4 7 6 8 8 8 8 8 8 9 9 10 10 11 11 11 12 12 12 12 12 12 12 12 12 12 12 12 12 12 12 13 13 13 13 13 12 12
6 6 6 6 5 4 4 4 4 4 3 3 4 4 4 4 3 4 4 4 6 3 3 2 2 2 2 2 3 4 2 2 4 3 3 4 4 3 3 5 7 7 8 8 9 9 9 9 9 10 11 11 11 11 11 11 12 11 11 11 11 11 11 12 13 13 13 13 13 13 13 13 13 14
6 7 7 6 6 5 6 5 5 4 4 4 3 4 5 5 4 5 5 5 6 3 2 2 2 1 0 2 2 3 3 3 2 2 2 2 2 2 2 3 5 7 7 7 8 8 9 10 10 9 10 10 10 11 11 11 10 10 10 10 10 10 11 12 12 13 14 14 14 13 13 13 13 14
6 6 8 7 6 6 7 6 5 5 5 5 5 5 6 6 6 6 6 6 5 5 1 2 1 3 2 4 2 4 4 4 3 4 3 1 1 2 2 2 3 5 6 6 7 7 8 8 9 10 11 10 10 10 10 9 10 10 10 10 10 10 10 10 10 12 13 13 13 14 14 13 12 13
7 7 7 8 6 4 6 6 6 6 6 5 7 7 5 6 6 6 7 6 6 5 4 2 2 4 4 5 5 4 3 3 2 3 3 2 1 2 2 3 3 5 6 6 6 6 7 8 8 8 8 9 10 10 10 10 10 10 10 11 11 10 10 10 10 10 11 12 13 14 13 13 13 13
8 9 8 8 7 6 8 7 6 5 6 6 6 6 5 6 7 6 5 6 5 4 4 3 5 3 4 5 4 2 1 3 3 3 2 2 3 3 2 3 3 5 8 7 7 7 6 6 6 6 7 7 7 7 8 8 9 9 10 10 11 12 12 11 11 11 11 11 11 12 13 14 13 13
9 9 9 8 8 8 8 6 6 5 7 6 5 6 5 6 6 4 4 4 4 4 5 4 3 2 3 2 2 1 2 2 2 1 3 3 3 4 4 3 4 6 8 8 8 7 7 5 4 5 5 5 5 5 5 5 6 7 9 9 10 10 11 11 11 11 11 11 11 10 11 13 13 13
9 10 10 8 9 9 9 8 6 6 7 5 6 6 6 5 4 5 5 4 5 5 5 4 4 2 3 2 2 0 2 3 3 4 3 2 2 3 4 3 3 3 3 2 3 4 4 4 6 7 7 8 7 6 7 9 10 9 8 7 8 8 9 10 11 11 11 11 10 10 10 10 11 12
8 9 9 9 9 10 9 7 7 8 7 5 6 7 7 6 5 5 5 5 5 5 5 4 4 4 2 2 4 0 0 0 0 3 5 5 2 2 3 5 2 2 3 4 5 4 4 4 3 4 6 8 8 9 9 9 9 9 9 9 8 7 8 9 9 10 11 11 11 10 10 10 9 10
8 8 8 8 9 10 9 9 7 7 7 6 6 6 6 6 6 6 5 5 4 4 4 4 4 3 3 2 2 0 0 1 2 4 3 9 7 5 2 3 4 2 1 3 3 3 3 3 1 2 5 8 10 10 9 9 8 8 8 8 8 8 9 9 9 9 10 10 10 10 10 11 10 10
8 8 7 8 7 10 10 12 11 10 9 8 8 7 7 6 7 6 4 5 4 3 3 4 3 3 3 3 2 1 2 3 4 2 6 7 8 5 5 5 3 4 3 3 3 5 4 3 2 1 3 5 9 8 8 7 8 8 8 9 9 9 9 9 9 9 9 9 9 10 10 10 10 10
8 9 7 8 11 12 14 15 15 15 15 14 11 9 8 8 7 6 6 5 5 5 5 5 4 4 5 4 2 2 2 2 2 3 4 6 6 4 5 5 4 1 1 3 5 5 1 1 3 3 5 5 5 4 4 5 6 8 10 10 10 10 9 9 9 9 9 9 9 9 9 10 10 10
10 8 7 6 10 12 13 13 15 14 15 15 16 14 13 11 11 8 7 6 6 6 5 4 3 4 4 4 1 2 2 2 2 3 4 5 4 4 5 8 5 1 1 2 2 4 1 1 3 5 6 5 4 5 5 8 10 11 11 11 10 10 9 10 10 10 9 8 8 9 9 9 10 10
10 9 6 4 3 8 12 11 10 11 13 15 16 14 13 13 13 11 10 8 5 5 5 4 4 3 4 3 1 2 2 3 3 3 3 3 4 5 6 7 7 1 2 2 4 6 3 1 3 5 6 5 4 6 8 11 12 11 11 11 11 10 10 11 10 10 10 10 9 9 9 9 9 10
10 7 7 9 10 8 13 10 8 8 10 13 15 13 12 12 12 12 9 3 5 5 5 4 3 5 3 4 3 3 3 2 3 2 3 3 3 3 6 8 5 3 1 2 3 6 5 4 5 6 6 6 5 7 9 11 11 12 12 13 12 12 13 13 12 11 10 10 10 10 11 11 11 11
10 9 11 10 6 6 8 9 9 8 8 7 7 7 6 6 7 6 7 6 6 5 5 5 5 4 5 4 2 3 3 2 6 5 6 5 5 6 8 6 5 3 1 4 3 4 6 5 5 6 6 5 5 6 8 10 11 13 14 13 13 13 12 12 12 12 12 11 12 12 12 12 12 11
10 10 11 11 9 7 8 9 10 10 9 8 7 7 7 6 5 5 5 5 4 4 4 5 5 2 3 3 2 1 2 5 5 5 6 6 6 5 2 3 3 4 2 3 2 5 3 2 4 7 7 5 5 5 6 9 13 14 13 13 12 12 12 11 11 12 12 13 13 13 13 13 13 12
9 10 11 10 11 11 11 13 17 15 9 9 8 8 6 5 4 4 2 4 5 4 4 3 3 2 2 2 3 3 3 4 4 2 2 0 1 2 3 4 2 4 1 3 3 3 4 3 5 7 5 4 6 5 5 9 13 12 11 11 12 13 13 13 12 12 13 13 13 13 13 13 14 14
9 9 10 11 11 11 11 14 16 14 10 9 9 9 8 6 5 4 3 3 3 4 4 3 2 2 3 4 4 4 4 4 2 2 1 3 2 3 4 4 2 4 1 1 4 3 6 5 4 6 5 5 6 6 6 6 9 11 12 12 13 13 13 14 14 14 14 14 14 14 14 13 13 14
7 10 16 14 11 11 11 14 15 14 13 9 9 9 9 8 6 4 5 4 2 4 6 5 5 5 4 3 2 2 3 4 4 4 5 2 2 3 3 4 2 3 4 3 3 3 5 3 2 5 4 5 4 4 4 5 7 9 9 12 13 13 13 14 15 15 15 16 16 15 15 15 14 9
7 7 12 16 12 11 11 16 15 16 13 9 9 9 8 8 7 6 8 6 6 5 5 3 3 3 2 2 1 1 2 5 5 4 4 2 3 3 2 3 2 4 3 2 4 4 4 4 3 2 5 6 4 2 4 4 4 5 5 7 9 13 15 15 14 14 15 15 16 16 15 15 12 6
6 7 7 12 15 15 15 15 15 15 14 10 8 8 8 8 7 6 6 5 5 6 5 3 2 2 1 1 1 1 1 1 4 5 4 4 3 3 3 3 3 4 3 1 4 4 3 2 5 1 4 6 6 2 3 4 5 6 7 7 7 10 11 11 10 12 12 13 14 14 15 15 12 6
8 8 8 7 13 16 15 13 14 15 14 11 9 8 7 6 7 10 5 7 8 5 4 3 2 1 1 0 0 0 0 1 2 2 3 3 4 3 3 3 4 6 5 4 3 2 4 2 5 3 4 3 6 7 4 4 6 7 7 6 7 7 6 7 7 8 10 12 12 13 14 14 14 9
7 8 9 8 13 16 14 14 16 16 14 12 8 6 8 11 15 9 6 6 5 4 3 3 2 1 0 1 0 0 0 1 2 2 2 3 3 3 4 4 5 4 5 3 4 2 3 4 5 5 4 3 6 6 8 7 6 7 6 5 5 7 7 7 7 7 7 7 7 6 8 11 12 13
8 8 9 9 15 15 16 15 16 14 13 10 7 11 13 13 13 8 5 5 5 4 3 3 2 2 2 2 2 1 0 0 1 2 3 2 2 3 3 4 5 6 6 6 3 3 3 4 3 5 6 5 7 7 7 7 6 3 5 6 6 7 7 6 7 7 7 7 8 10 10 11 13 14
8 9 10 10 16 16 16 15 14 14 12 8 12 12 13 13 10 5 6 5 5 4 3 3 3 3 3 2 1 2 2 1 1 2 2 2 2 3 3 3 5 6 7 7 6 4 5 6 6 5 5 6 6 7 7 7 8 7 7 7 7 7 7 6 6 7 7 7 7 7 7 9 8 8
8 10 13 15 16 15 14 14 13 11 10 12 12 13 13 13 5 5 5 5 5 4 4 4 3 2 2 3 2 1 1 2 2 2 2 2 2 2 2 3 4 5 4 4 5 4 4 5 6 5 4 4 5 6 6 8 7 8 7 8 7 5 6 6 6 6 7 7 8 8 9 9 10 9
16 16 15 17 16 14 14 11 8 7 7 10 12 12 11 7 6 6 5 5 5 5 5 4 4 3 2 2 2 1 1 1 2 0 1 1 2 1 2 3 3 2 3 4 4 3 4 4 5 5 5 5 6 7 7 7 7 8 7 8 8 8 7 5 5 6 7 7 8 9 9 9 10 10
12 15 14 11 13 11 13 12 11 10 11 9 8 8 5 5 5 6 5 6 5 5 4 4 3 2 2 1 1 2 1 2 1 1 1 1 1 1 1 1 3 4 5 4 4 3 3 3 4 4 5 5 5 6 6 6 8 8 8 7 6 7 7 7 7 7 7 7 8 10 10 9 9 10
13 12 14 15 11 11 10 9 7 7 6 6 6 6 5 5 5 6 4 2 2 3 2 2 2 2 2 2 2 2 2 2 1 1 1 1 1 0 1 1 3 3 4 5 5 5 3 2 3 3 5 5 6 6 5 6 7 8 8 8 7 7 7 8 8 8 8 8 11 11 9 10 10 10
13 13 12 11 12 10 10 9 7 7 7 5 5 6 6 6 5 6 6 5 5 4 4 4 4 3 2 2 2 2 2 2 1 2 1 1 1 0 1 3 4 4 4 5 5 5 5 5 3 4 5 5 6 7 6 6 6 6 7 8 7 8 8 8 8 9 9 11 11 11 11 10 10 11
14 12 11 10 11 11 10 9 8 8 7 7 6 5 6 5 6 6 4 4 4 4 4 4 4 4 3 3 2 2 2 1 2 2 2 2 1 0 1 3 4 3 4 5 5 5 5 5 5 5 4 4 5 7 7 7 8 7 6 7 7 8 8 8 9 11 11 11 12 14 12 11 11 11
12 12 11 11 10 10 10 9 9 8 8 8 7 6 6 5 5 4 4 5 4 4 4 4 4 3 4 3 3 3 2 2 1 2 2 2 1 1 2 3 4 4 4 5 5 4 4 5 4 5 5 5 6 4 8 9 6 7 7 7 6 7 8 8 11 12 12 11 8 12 12 12 12 11
11 10 10 10 10 10 10 9 8 8 6 6 5 5 5 5 5 6 5 5 5 4 4 4 4 4 4 4 3 3 2 2 1 1 1 1 1 2 3 4 4 5 4 5 5 4 3 4 3 4 5 6 6 7 5 7 9 6 8 8 7 7 8 9 11 12 12 10 8 9 13 14 13 13
10 9 10 11 11 10 9 9 8 6 6 6 5 5 6 5 5 6 4 5 5 5 5 4 5 4 4 3 3 3 2 2 1 2 1 1 1 1 2 3 4 4 4 5 4 4 3 4 3 2 4 6 6 7 8 2 5 7 5 7 8 8 9 10 11 12 11 10 11 10 11 13 15 13
11 10 10 10 10 9 7 6 5 5 5 5 5 5 5 4 4 4 4 5 5 4 5 5 4 4 3 4 4 3 2 2 2 2 2 1 1 2 2 3 4 4 5 5 4 4 3 3 3 2 2 4 7 7 9 5 4 4 7 4 7 8 8 10 12 13 13 10 11 11 12 16 16 16
10 11 10 10 8 7 7 6 6 6 6 5 5 6 5 5 4 4 4 4 4 4 4 4 4 4 4 3 3 3 3 3 3 2 2 1 1 2 3 3 5 4 4 5 4 4 3 4 3 2 2 4 6 7 7 7 7 8 6 6 6 7 8 9 11 12 11 11 11 12 14 13 17 20
9 9 8 7 7 6 6 6 5 5 6 6 6 5 5 5 5 4 4 4 4 4 4 4 4 4 3 3 3 2 2 3 3 2 2 1 1 2 3 4 5 5 4 5 5 4 4 5 4 4 6 6 8 8 7 8 8 8 8 8 6 6 7 8 10 11 12 10 13 16 17 16 17 16
9 8 6 7 7 6 6 6 6 6 6 5 5 5 4 4 5 4 5 5 5 5 4 4 4 4 3 3 4 4 3 2 2 2 1 1 2 3 5 5 4 3 4 5 5 5 6 6 6 10 9 7 7 5 5 5 6 6 6 6 4 6 9 7 7 9 10 12 13 14 16 17 18 18
9 8 7 7 7 6 6 6 6 6 5 5 5 5 5 4 3 7 6 7 5 5 4 4 4 3 3 3 3 3 3 3 3 2 2 3 3 3 4 4 4 3 4 5 5 6 7 6 6 6 4 4 3 3 5 6 7 8 8 7 7 5 6 8 9 9 9 9 11 14 14 13 12 16
7 6 7 6 6 6 6 6 6 6 6 6 5 5 5 4 4 6 5 6 5 4 4 3 3 3 3 2 3 3 3 3 3 3 3 3 3 4 4 3 4 4 5 5 6 6 6 6 4 4 4 2 2 2 5 7 7 7 8 8 9 9 9 9 10 11 12 12 11 9 9 11 13 14
6 7 6 6 6 6 6 6 6 6 6 6 6 6 5 6 6 6 6 6 6 5 4 3 3 3 3 3 2 2 3 4 4 4 3 3 4 4 4 4 4 4 4 5 5 5 5 5 4 3 4 4 3 4 5 6 7 7 8 8 8 9 10 10 10 9 9 9 10 11 13 14 14 17
7 6 7 6 6 6 6 6 6 6 6 6 6 5 6 5 5 5 5 5 5 4 4 3 3 3 3 3 3 4 4 5 3 3 3 3 3 3 4 4 4 4 4 3 4 5 5 5 5 3 3 3 2 4 5 5 7 7 8 8 10 10 9 10 10 11 11 10 9 12 15 16 17 18
Wind_Direction
196 193 185 194 195 194 169 171 174 165 156 178 175 176 175 171 170 208 246 265 249 288 193 227 313 172 200 200 206 227 235 248 245 223 228 232 235 250 252 257 263 267 271 272 271 271 273 275 275 272 270 273 271 270 270 271 274 275 272 270 268 265 263 259 258 259 260 260 256 254 255 260 263 265
190 189 172 174 191 163 175 187 172 168 174 165 178 191 184 159 185 192 224 270 209 250 234 212 256 336 14 9 326 231 249 244 242 221 218 227 238 250 255 260 259 260 262 264 264 265 267 269 272 274 276 278 279 279 275 273 273 272 275 276 273 270 269 267 262 258 256 256 257 257 256 256 258 260
185 188 190 173 189 163 181 161 165 168 170 175 164 164 147 178 174 171 156 266 276 178 271 260 217 259 345 77 276 246 236 249 233 227 216 230 232 248 261 264 272 275 277 279 279 276 275 276 276 276 276 277 280 280 279 279 276 272 271 271 271 274 274 274 272 268 265 261 256 255 255 255 254 251
190 188 193 184 185 175 166 173 175 171 176 163 164 163 159 154 146 139 161 212 258 220 226 258 287 218 250 291 282 280 260 202 224 224 229 232 241 251 261 277 282 284 285 289 291 293 290 283 278 280 282 282 281 278 274 274 274 274 277 278 278 276 277 278 279 278 275 270 265 261 258 255 253 255
188 193 196 189 189 168 177 182 173 172 168 159 157 150 145 154 157 158 174 209 251 273 208 240 255 12 344 278 236 269 287 303 273 250 253 259 258 262 260 264 266 264 270 275 282 287 293 295 291 281 273 273 272 273 276 280 282 282 278 274 270 270 273 275 275 276 277 277 275 270 262 255 252 253
196 190 199 197 183 179 186 179 180 181 170 171 163 171 170 169 176 186 167 207 210 236 238 234 224 261 211 240 205 222 244 255 266 287 294 290 240 244 248 250 251 251 254 257 262 272 276 277 283 290 293 288 284 282 283 285 289 290 290 291 291 290 284 276 275 277 277 275 273 273 271 267 262 260
186 193 200 203 177 167 187 193 195 181 182 180 181 182 182 180 187 186 198 182 209 213 241 196 209 213 199 214 228 216 219 242 252 274 275 283 249 223 235 251 262 265 267 275 284 290 294 294 288 280 276 279 282 286 290 296 297 297 299 302 302 301 298 295 288 278 271 272 272 271 269 265 264 261
187 199 197 205 175 173 194 201 194 193 187 182 189 186 187 192 196 193 193 208 195 186 211 223 207 206 192 231 243 238 240 251 253 238 269 241 258 267 253 248 249 263 266 271 280 281 272 265 274 281 275 266 263 266 272 278 281 286 293 296 299 299 298 294 289 284 278 270 263 263 266 268 268 266
199 201 206 194 173 179 194 195 198 180 192 191 187 195 187 200 204 176 183 193 193 179 209 232 238 234 245 254 272 181 235 256 246 228 239 261 278 276 269 262 258 263 269 271 272 279 285 295 291 278 284 302 310 305 287 265 256 258 266 274 278 282 286 288 287 284 282 281 278 269 260 259 259 263
204 207 208 194 180 183 194 202 200 189 203 188 193 196 197 201 183 189 188 186 190 204 224 219 249 210 236 243 249 177 182 238 278 275 273 270 243 263 282 254 241 231 235 218 234 249 265 296 314 322 333 324 312 307 308 309 309 306 292 270 258 262 270 274 278 280 279 277 274 272 267 264 264 263
206 207 206 195 189 194 196 185 197 196 198 190 199 203 203 193 189 193 192 181 185 201 219 232 236 257 235 224 257 79 217 235 293 339 336 314 239 242 267 286 251 228 244 244 244 252 262 274 285 332 312 303 301 308 306 303 301 300 300 301 299 285 270 266 266 268 271 272 273 272 271 265 259 258
207 207 202 194 194 195 184 186 205 206 202 202 201 205 200 193 191 199 194 175 195 200 213 227 235 221 238 191 213 177 39 325 67 63 354 299 297 290 274 264 295 298 268 298 288 275 274 270 321 347 305 296 300 298 298 293 293 293 291 290 289 290 289 288 284 278 272 268 267 267 268 269 268 262
209 208 203 196 188 195 178 178 195 197 206 195 204 204 192 191 191 196 182 195 186 211 218 241 227 237 238 243 238 234 209 230 196 202 247 264 275 290 294 282 256 242 260 269 282 293 306 309 291 279 281 289 295 294 292 291 283 277 280 286 289 289 288 286 286 284 281 275 271 270 271 272 271 269
208 211 199 197 187 176 180 194 205 213 214 213 209 200 191 189 181 184 184 186 197 200 213 231 222 228 249 243 201 217 215 169 157 227 250 252 267 288 284 285 260 238 190 285 293 285 297 266 304 306 288 278 271 273 278 268 278 286 289 288 287 288 289 291 289 286 283 280 274 270 268 271 273 273
214 212 200 176 185 184 189 197 210 217 212 217 218 209 193 189 183 175 178 195 191 194 216 214 197 224 251 254 172 228 262 205 197 220 223 250 265 272 288 293 307 63 186 256 275 285 168 139 285 282 274 271 271 269 265 272 278 279 279 278 279 282 289 295 299 298 289 275 268 267 267 264 262 262
214 212 173 113 149 209 201 199 203 220 223 221 222 213 200 195 193 184 181 190 186 192 205 207 213 207 231 257 220 236 237 250 239 228 240 242 260 276 280 282 285 337 2 299 286 286 285 224 247 268 270 274 271 273 278 280 278 278 279 285 294 304 304 300 297 292 288 285 279 275 272 268 266 264
205 185 137 164 202 213 204 192 194 203 219 221 217 210 200 193 191 195 195 136 178 171 181 203 201 203 207 235 230 198 204 157 253 259 255 237 241 253 275 280 279 292 69 277 271 278 286 298 286 277 268 266 268 277 273 272 278 285 295 303 309 306 302 298 295 291 287 284 283 284 284 284 283 278
198 174 178 189 193 201 197 200 193 205 221 211 194 192 181 188 193 173 139 120 122 149 164 175 210 198 181 218 193 173 155 217 265 271 279 283 283 279 277 287 280 286 160 268 285 276 280 275 276 273 273 267 266 262 270 280 290 292 294 298 296 292 289 290 292 294 292 290 290 290 289 287 283 281
194 180 191 192 194 205 202 193 195 199 206 197 192 176 177 176 155 147 148 155 168 174 187 192 218 164 181 213 228 191 201 244 256 260 274 287 288 294 316 276 251 274 218 206 180 265 270 265 269 269 276 283 280 278 293 292 286 286 287 287 287 286 287 285 284 283 285 288 290 291 290 289 285 280
190 183 187 188 181 189 197 191 192 201 188 179 166 169 164 141 123 128 154 156 171 178 185 196 204 204 176 196 230 231 242 243 243 251 251 202 224 254 271 271 309 281 239 188 213 259 267 259 272 280 287 292 284 289 287 283 281 284 287 291 294 295 295 294 291 288 287 286 286 286 287 286 286 285
184 180 180 182 183 184 192 191 193 193 168 175 172 162 153 138 132 137 144 145 157 177 159 153 141 143 180 207 233 239 222 218 170 130 92 250 210 230 266 277 278 268 274 206 208 254 277 266 270 285 289 291 290 288 281 283 293 299 304 301 298 298 298 297 297 296 296 294 293 291 289 286 284 285
180 184 178 179 178 182 188 181 184 184 176 174 169 156 149 145 143 149 156 145 108 108 120 129 151 159 151 164 177 209 194 197 185 167 225 221 159 235 236 266 263 301 304 275 165 224 257 299 257 283 285 283 251 266 275 287 296 302 300 299 299 296 292 292 294 296 296 295 293 292 291 291 292 290
179 177 182 179 179 181 175 168 179 179 179 172 165 160 153 153 160 167 158 146 140 141 143 133 142 123 87 65 24 63 120 180 205 212 233 159 207 239 243 258 302 296 271 245 168 245 274 288 280 292 301 291 274 249 273 282 288 286 282 286 292 290 291 293 292 288 286 285 287 287 288 288 291 284
174 173 175 181 177 176 172 171 169 178 179 171 156 151 163 163 169 162 155 159 143 155 155 142 120 94 86 31 48 303 283 217 201 194 195 193 196 205 239 243 238 263 270 249 178 242 285 272 281 191 269 296 304 296 276 281 278 277 280 283 279 284 288 290 286 281 275 274 277 279 282 283 283 286
168 172 176 170 172 175 179 167 167 176 175 159 149 158 167 178 149 149 144 158 151 143 138 127 129 136 120 88 323 230 244 215 162 162 178 187 195 198 223 244 249 258 256 260 185 227 267 288 287 282 271 233 265 292 287 286 280 277 276 276 280 283 283 284 287 289 285 273 265 264 270 271 273 266
169 170 165 164 173 173 164 165 168 168 159 152 145 158 137 126 135 142 143 140 139 130 124 138 152 146 136 123 178 149 151 176 183 191 192 198 207 215 237 234 248 261 269 245 148 209 265 273 270 277 275 270 276 275 294 288 274 277 277 274 271 276 281 286 287 283 282 285 289 272 273 267 265 263
169 155 159 161 167 166 161 163 165 160 148 143 136 140 136 136 136 133 135 140 129 131 144 148 156 175 179 183 170 181 171 170 187 228 233 234 228 247 245 240 235 248 265 286 285 263 233 259 257 263 276 278 285 290 279 286 290 271 283 284 287 285 279 282 280 282 286 289 288 288 276 259 256 257
152 152 157 163 164 156 156 154 153 147 149 138 135 135 134 137 138 133 141 138 142 145 152 161 180 192 184 185 181 196 203 228 256 264 255 251 240 253 266 256 257 248 262 267 269 244 234 249 268 262 257 271 279 281 284 274 275 285 292 288 283 282 281 274 277 278 280 281 285 289 291 297 291 282
150 153 148 143 150 149 141 137 136 135 129 127 133 134 143 148 151 146 144 147 147 159 177 191 188 183 179 187 190 167 192 233 233 231 221 210 215 219 241 254 249 255 256 261 262 255 235 241 257 271 268 248 248 261 262 275 287 290 290 299 296 285 292 285 279 278 283 290 290 291 291 292 290 285
135 136 136 138 132 125 129 127 137 140 135 129 135 147 153 156 157 161 147 156 165 183 186 185 190 175 158 176 191 218 224 242 253 192 254 18 315 21 348 332 302 270 241 239 257 247 236 235 243 251 262 258 243 260 265 278 282 279 282 276 278 292 272 271 275 280 279 280 283 286 287 285 281 283
120 126 133 140 137 129 128 120 120 118 120 123 136 152 154 153 161 168 176 170 175 176 178 181 180 163 167 150 213 224 219 243 211 159 181 310 299 344 11 313 283 290 296 304 289 259 248 245 241 231 250 272 273 256 267 271 278 282 280 276 281 283 291 292 288 284 285 286 291 293 289 279 280 274
123 118 117 114 114 119 113 116 120 130 142 145 150 152 152 158 165 172 173 143 154 173 165 147 137 155 167 203 206 217 225 230 179 134 139 150 294 15 345 295 274 284 292 298 301 300 288 260 262 245 243 257 271 281 282 269 270 273 277 277 276 274 278 286 290 290 286 295 302 298 289 283 281 282
121 122 127 129 130 133 136 138 141 144 147 150 152 152 158 166 165 166 178 184 187 176 168 177 182 184 188 207 206 212 213 204 143 121 123 139 172 52 134 254 276 283 291 294 294 295 304 306 284 273 265 256 240 252 267 280 266 261 268 282 289 286 288 285 287 289 297 304 301 301 296 285 276 274
131 136 137 142 143 146 148 154 158 162 163 158 164 172 172 168 175 186 189 195 177 173 185 178 183 190 189 211 203 205 199 181 139 125 141 136 139 163 239 266 270 266 263 274 283 288 299 303 311 302 277 254 240 235 235 243 265 277 280 290 288 289 289 291 294 300 300 301 303 304 299 290 282 275
134 139 142 146 150 154 155 159 167 166 167 176 174 174 175 184 182 183 192 192 173 181 188 190 198 187 193 210 194 194 187 194 145 136 129 112 110 214 250 262 272 276 279 286 286 287 294 297 313 312 308 316 311 264 212 222 265 274 290 284 281 283 290 296 305 308 307 302 296 300 297 292 286 284
138 141 141 148 154 157 160 165 166 170 174 170 167 156 166 183 191 188 201 177 178 181 191 195 195 197 198 203 192 186 174 163 134 112 106 117 185 222 224 244 264 277 277 274 282 287 293 292 305 319 320 319 317 314 321 194 211 278 296 300 301 299 298 304 308 308 305 299 292 294 298 294 291 293
135 140 146 152 155 159 164 165 170 171 169 166 165 172 178 183 192 205 180 153 179 191 195 192 200 195 197 189 173 173 169 146 144 135 187 171 191 240 280 275 272 274 282 277 277 284 275 289 291 304 313 320 317 308 291 296 253 241 258 278 294 305 308 310 312 311 305 301 295 290 284 295 296 291
141 144 149 154 157 163 156 146 153 163 168 168 168 172 191 191 182 173 155 174 188 190 189 201 196 189 188 170 174 172 141 138 137 179 186 170 192 249 254 282 287 284 283 282 281 281 275 272 284 285 286 301 309 302 308 303 303 281 187 235 293 299 303 310 315 315 312 302 293 290 298 302 301 303
147 155 154 158 156 148 146 153 160 167 172 167 172 182 185 186 174 160 171 184 179 184 178 187 189 185 169 171 178 161 164 163 181 187 173 160 186 245 274 272 278 272 277 283 283 280 278 282 288 289 273 284 278 283 293 297 288 294 291 268 272 287 304 317 314 313 309 302 299 305 304 295 292 290
149 150 149 140 143 145 143 144 165 168 170 178 180 182 179 173 168 165 166 169 172 175 179 181 166 158 156 160 162 154 163 176 178 170 157 178 200 246 259 263 266 277 278 280 288 293 293 294 299 310 303 281 273 271 281 277 274 270 266 280 212 225 296 311 313 314 308 300 311 314 312 314 314 318
146 145 147 148 141 145 150 161 166 168 172 169 170 176 174 150 151 162 169 167 164 163 169 165 160 169 165 165 174 178 183 178 158 154 162 183 232 244 255 261 265 258 275 285 284 288 293 295 302 305 293 281 280 276 251 256 288 303 309 308 307 249 246 247 284 303 298 303 313 315 316 318 319 318
154 148 147 146 140 144 151 159 165 168 164 162 166 158 150 151 155 159 162 161 155 153 148 158 166 174 172 165 166 167 177 176 166 169 181 203 229 236 238 237 262 272 269 281 290 290 288 292 305 305 299 300 287 301 309 310 302 306 306 309 305 292 285 282 276 272 279 293 312 317 317 314 319 317
147 142 145 143 135 143 160 160 163 166 160 159 155 145 136 137 147 159 159 158 157 160 165 163 169 180 168 165 168 176 173 184 182 183 185 199 222 245 252 255 261 273 269 273 277 279 284 292 303 318 313 312 290 282 290 304 298 295 303 313 317 319 313 305 296 292 286 279 266 267 288 303 311 308
149 145 140 140 147 152 159 162 162 164 158 157 148 143 147 155 165 170 163 158 161 169 166 168 170 178 182 179 167 171 194 195 176 179 193 207 221 237 250 258 261 266 271 272 287 289 297 302 306 321 319 314 307 295 295 304 305 309 310 308 311 318 319 323 318 307 290 285 299 299 294 287 280 283
160 144 136 145 153 157 163 160 159 157 153 145 144 150 160 168 162 161 164 159 163 156 164 178 181 190 188 181 180 198 203 191 180 177 192 221 227 231 239 250 258 263 271 279 293 296 306 309 303 301 279 288 272 271 284 289 298 307 308 313 318 322 321 323 322 321 320 313 306 308 307 307 307 313